W4NFM Weather Reports


time (UTC)temp
F
wind
direction
speed
knots
gust
knots
rain 1hr
in
rain 24hr
in
rain mn
in
humidity
%
barometer
mb
20260508062705 51 242 0.0 2.6 0.00 0.00 0.00 60 1016.0
20260508061805 50 240 0.0 1.7 0.00 0.00 0.00 63 1015.9
20260508060904 51 239 0.0 0.9 0.00 0.00 0.00 67 1015.9
20260508060005 50 236 0.0 0.9 0.00 0.00 0.00 64 1016.1
20260508055405 50 236 0.0 0.9 0.00 0.00 0.00 63 1015.9
20260508054504 50 0 0.0 0.0 0.00 0.00 0.00 71 1015.9
20260508053605 50 0 0.0 0.0 0.00 0.00 0.00 70 1015.9
20260508052705 51 0 0.0 0.0 0.00 0.00 0.00 72 1015.6
20260508051804 51 0 0.0 0.0 0.00 0.00 0.00 66 1015.6
20260508050926 51 287 0.0 0.9 0.00 0.00 0.00 73 1015.5
20260508050005 50 281 0.0 0.9 0.00 0.00 0.00 68 1015.5
20260508045405 51 270 0.0 0.9 0.00 0.00 0.00 74 1015.2
20260508044505 51 259 0.0 0.9 0.00 0.00 0.00 69 1015.2
20260508043605 51 261 0.0 0.9 0.00 0.00 0.00 67 1015.2
20260508042726 51 284 0.0 0.9 0.00 0.00 0.00 71 1014.9
20260508041805 51 0 0.0 0.0 0.00 0.00 0.00 69 1014.9
20260508040904 52 276 0.0 0.9 0.00 0.00 0.00 74 1014.8
20260508040005 52 0 0.0 0.0 0.00 0.00 0.00 67 1014.9
20260508035405 52 249 0.0 0.9 0.00 0.00 0.00 66 1014.6
20260508034526 52 284 0.0 0.9 0.00 0.00 0.00 67 1014.5
20260508033605 52 0 0.0 0.0 0.00 0.00 0.00 68 1014.5
20260508032726 52 292 0.0 0.9 0.00 0.00 0.00 69 1014.6
20260508031805 53 275 0.0 0.9 0.00 0.00 0.00 74 1014.4
20260508030905 52 249 0.0 0.9 0.00 0.00 0.00 72 1014.3
20260508030005 53 298 0.0 0.9 0.00 0.00 0.00 65 1014.5
20260508025405 53 260 0.0 0.9 0.00 0.00 0.00 71 1014.4
20260508024526 53 250 0.0 0.9 0.00 0.00 0.00 72 1014.3
20260508023626 54 227 0.0 0.9 0.00 0.00 0.00 65 1014.0
20260508022705 54 282 0.0 1.7 0.00 0.00 0.00 66 1014.0
20260508021805 54 0 0.0 0.0 0.00 0.00 0.00 66 1013.9
20260508020905 55 242 0.0 1.7 0.00 0.00 0.00 64 1013.8
20260508020004 55 245 0.0 1.7 0.00 0.00 0.00 63 1013.4
20260508015405 55 259 0.0 1.7 0.00 0.00 0.00 62 1013.4
20260508014505 56 239 0.0 1.7 0.00 0.00 0.00 61 1013.0
20260508013605 56 231 0.9 3.5 0.00 0.00 0.00 61 1013.1
20260508012704 56 235 0.9 1.7 0.00 0.00 0.00 64 1012.8
20260508011826 56 221 0.9 3.5 0.00 0.00 0.00 59 1012.8
20260508010904 56 241 0.9 2.6 0.00 0.00 0.00 63 1012.8
20260508010005 56 237 0.0 2.6 0.00 0.00 0.00 61 1012.6
20260508005405 56 219 0.9 2.6 0.00 0.00 0.00 62 1012.7
20260508004505 56 241 0.0 1.7 0.00 0.00 0.00 71 1012.7
20260508003605 56 242 0.9 2.6 0.00 0.00 0.00 68 1012.5
20260508002726 57 228 0.9 1.7 0.00 0.00 0.00 62 1012.1
20260508001805 57 227 0.9 1.7 0.00 0.00 0.00 60 1012.4
20260508000904 58 245 0.0 1.7 0.00 0.00 0.00 61 1012.3
20260508000005 58 228 0.9 2.6 0.00 0.00 0.00 62 1012.4
20260507235425 59 213 0.9 2.6 0.00 0.00 0.00 57 1012.3
20260507234505 59 212 0.9 3.5 0.00 0.00 0.00 58 1012.1
20260507233604 60 224 0.9 2.6 0.00 0.00 0.00 57 1011.9
20260507232705 60 222 0.9 5.2 0.00 0.00 0.00 57 1011.6
20260507231805 60 220 0.9 6.1 0.00 0.00 0.00 56 1011.4
20260507230905 60 214 0.9 3.5 0.00 0.00 0.00 57 1011.3
20260507230005 60 216 0.9 3.5 0.00 0.00 0.00 58 1011.3
20260507225404 60 227 0.9 3.5 0.00 0.00 0.00 59 1011.2
20260507224505 61 234 1.7 3.5 0.00 0.00 0.00 57 1011.1
20260507223604 62 232 1.7 3.5 0.00 0.00 0.00 59 1011.0
20260507222704 63 233 0.9 2.6 0.00 0.00 0.00 59 1010.9
20260507221804 63 212 1.7 5.2 0.00 0.00 0.00 59 1011.0
20260507220904 63 223 0.9 5.2 0.00 0.00 0.00 60 1010.8
20260507220026 63 224 0.9 5.2 0.00 0.00 0.00 67 1010.7
20260507215404 63 233 0.9 2.6 0.00 0.00 0.00 72 1010.7
20260507214505 62 261 0.9 2.6 0.00 0.00 0.00 70 1010.6
20260507213604 63 231 1.7 3.5 0.00 0.00 0.00 72 1010.8
20260507212705 63 229 1.7 3.5 0.00 0.00 0.00 71 1010.7
20260507211804 63 256 0.9 3.5 0.00 0.00 0.00 71 1010.5
20260507210904 62 234 0.9 2.6 0.00 0.00 0.00 76 1010.7
20260507210005 60 233 0.9 1.7 0.00 0.00 0.00 76 1010.5
20260507205404 60 220 1.7 2.6 0.00 0.00 0.00 77 1010.7
20260507204505 61 242 0.9 2.6 0.00 0.00 0.00 74 1010.7
20260507203604 58 279 0.9 0.9 0.00 0.00 0.00 81 1010.7
20260507202725 61 244 0.9 1.7 0.00 0.00 0.00 76 1010.6
20260507201825 61 261 0.9 1.7 0.00 0.00 0.00 74 1010.7
20260507200925 61 268 0.9 1.7 0.00 0.00 0.00 76 1010.8
20260507200025 59 272 0.9 1.7 0.00 0.00 0.00 79 1011.0
20260507195404 58 273 0.0 0.9 0.00 0.00 0.00 83 1011.2
20260507194525 57 237 0.9 1.7 0.00 0.00 0.00 83 1011.5
20260507193604 57 277 0.0 0.9 0.00 0.00 0.00 87 1011.7
20260507192705 57 285 0.0 0.9 0.00 0.00 0.00 89 1011.5
20260507191804 56 276 0.0 0.9 0.00 0.00 0.00 87 1011.6
20260507190904 57 0 0.0 0.0 0.00 0.00 0.00 89 1011.7
20260507190026 57 293 0.0 0.9 0.00 0.00 0.00 89 1011.7
20260507185425 57 312 0.0 0.9 0.00 0.00 0.00 89 1011.9
20260507184525 56 0 0.0 0.0 0.00 0.00 0.00 90 1012.4
20260507183604 56 0 0.0 0.0 0.00 0.00 0.00 91 1012.1
20260507182704 56 0 0.0 0.0 0.00 0.00 0.00 92 1012.1
20260507181804 55 0 0.0 0.0 0.00 0.00 0.00 92 1012.1
20260507180904 55 0 0.0 0.0 0.00 0.00 0.00 92 1012.3
20260507180005 55 0 0.0 0.0 0.00 0.00 0.00 92 1012.0
20260507175404 55 0 0.0 0.0 0.00 0.00 0.00 92 1012.4
20260507174504 55 308 0.0 0.9 0.00 0.00 0.00 93 1012.0
20260507173604 55 306 0.0 0.9 0.00 0.00 0.00 92 1012.3
20260507172705 55 305 0.0 1.7 0.00 0.00 0.00 90 1012.4
20260507171804 56 333 0.9 1.7 0.00 0.00 0.00 86 1012.1
20260507170904 57 311 0.0 0.9 0.00 0.00 0.00 84 1012.4
20260507170005 57 310 0.0 0.9 0.00 0.00 0.00 83 1012.1
20260507165404 57 321 0.0 0.9 0.00 0.00 0.00 84 1012.3
20260507164504 57 311 0.0 0.9 0.00 0.00 0.00 84 1012.3
20260507163604 57 297 0.0 0.9 0.00 0.00 0.00 85 1012.3
20260507162704 58 285 0.0 1.7 0.00 0.00 0.00 84 1012.3
20260507161804 58 302 0.0 0.9 0.00 0.00 0.00 83 1012.3
20260507160925 58 294 0.0 1.7 0.00 0.00 0.00 83 1012.4
20260507160005 58 299 0.0 0.9 0.00 0.00 0.00 83 1012.4
20260507155404 58 318 0.0 1.7 0.00 0.00 0.00 83 1012.5
20260507154525 58 319 0.0 0.9 0.00 0.00 0.00 83 1012.7
20260507153604 58 286 0.0 1.7 0.00 0.00 0.00 84 1012.6
20260507152704 58 319 0.0 0.9 0.00 0.00 0.00 83 1012.6
20260507151825 58 308 0.0 0.9 0.00 0.00 0.00 84 1012.7
20260507150904 58 310 0.0 0.9 0.00 0.00 0.00 83 1012.6
20260507150005 59 287 0.0 0.9 0.00 0.00 0.00 85 1012.5
20260507145404 59 303 0.0 0.9 0.00 0.00 0.00 84 1012.3
20260507144504 58 307 0.0 0.9 0.00 0.00 0.00 83 1012.5
20260507143604 58 306 0.0 0.9 0.00 0.00 0.00 84 1012.3
20260507142704 59 332 0.0 0.9 0.00 0.00 0.00 84 1012.0
20260507141804 59 291 0.0 0.9 0.00 0.00 0.00 84 1012.1
20260507140925 59 317 0.0 0.9 0.00 0.00 0.00 83 1012.5
20260507140005 59 294 0.0 0.9 0.00 0.00 0.00 85 1011.8
20260507135404 59 258 0.0 0.9 0.00 0.00 0.00 85 1011.8
20260507134525 59 261 0.0 0.9 0.00 0.00 0.00 87 1012.6
20260507133625 59 251 0.9 1.7 0.00 0.00 0.00 88 1012.6
20260507132704 59 279 0.0 0.9 0.00 0.00 0.00 86 1012.4
20260507131804 59 229 0.0 2.6 0.00 0.00 0.00 84 1012.4
20260507130904 59 230 0.9 3.5 0.00 0.00 0.00 84 1012.8
20260507130005 59 233 0.0 3.5 0.00 0.00 0.00 85 1012.6
20260507125404 59 241 0.0 3.5 0.00 0.00 0.00 88 1012.4
20260507124504 59 274 0.0 0.9 0.00 0.00 0.00 89 1012.4
20260507123604 59 270 0.0 0.9 0.00 0.00 0.00 90 1012.5
20260507122725 59 244 0.0 1.7 0.00 0.00 0.00 90 1012.7
20260507121804 59 269 0.0 1.7 0.00 0.00 0.00 92 1012.6
20260507120904 58 266 0.0 0.9 0.00 0.00 0.00 92 1012.4
20260507120005 59 251 0.0 0.9 0.00 0.00 0.00 94 1012.4
20260507115404 58 266 0.0 0.9 0.00 0.00 0.00 92 1012.1
20260507114504 58 299 0.0 0.9 0.00 0.00 0.00 94 1012.3
20260507113604 58 288 0.0 0.9 0.00 0.00 0.00 94 1012.1
20260507112704 58 252 0.0 0.9 0.00 0.00 0.00 94 1012.1
20260507111804 58 0 0.0 0.0 0.00 0.00 0.00 93 1012.0
20260507110904 58 0 0.0 0.0 0.00 0.00 0.00 92 1011.9
20260507110025 58 284 0.0 0.9 0.00 0.00 0.00 93 1012.1
20260507105425 58 267 0.0 1.7 0.00 0.00 0.00 93 1011.9
20260507104504 58 257 0.9 1.7 0.00 0.00 0.00 92 1011.8
20260507103604 58 228 0.0 2.6 0.00 0.00 0.00 91 1011.7
20260507102725 58 244 0.0 1.7 0.00 0.00 0.00 90 1011.7
20260507101804 58 244 0.0 1.7 0.00 0.00 0.00 90 1011.4
20260507100904 59 223 0.0 1.7 0.00 0.00 0.00 91 1011.6
20260507100005 59 228 0.0 1.7 0.00 0.00 0.00 91 1011.6
20260507095404 59 228 0.9 2.6 0.00 0.00 0.00 90 1011.1
20260507094504 59 298 0.0 0.9 0.00 0.00 0.00 92 1011.8
20260507093604 59 275 0.0 0.9 0.00 0.00 0.00 92 1011.3
20260507092725 59 265 0.0 0.9 0.00 0.00 0.00 92 1011.7
20260507091804 59 236 0.0 5.2 0.00 0.00 0.00 92 1011.6
20260507090904 59 307 0.0 0.9 0.00 0.00 0.00 94 1011.3
20260507090005 59 0 0.0 0.0 0.00 0.00 0.00 94 1010.6
20260507085425 59 245 0.0 0.9 0.00 0.00 0.00 95 1011.2
20260507084504 60 299 0.0 1.7 0.00 0.00 0.00 96 1011.1
20260507083625 60 311 0.0 0.9 0.00 0.00 0.00 98 1011.6
20260507082704 60 311 0.0 0.9 0.00 0.00 0.00 98 1011.5
20260507081804 60 304 0.0 0.9 0.00 0.00 0.00 99 1011.6
20260507080904 61 296 0.0 0.9 0.00 0.00 0.00 99 1011.4
20260507080004 62 0 0.0 0.0 0.00 0.00 0.00 99 1011.6
20260507075404 61 0 0.0 0.0 0.00 0.00 0.00 99 1011.3
20260507074504 61 224 0.0 0.9 0.00 0.00 0.00 99 1011.5
20260507073604 62 300 0.0 0.9 0.00 0.00 0.00 99 1011.6
20260507072704 62 0 0.0 0.0 0.00 0.00 0.00 99 1011.6
20260507071805 62 0 0.0 0.0 0.00 0.00 0.00 99 1011.2
20260507070904 62 0 0.0 0.0 0.00 0.00 0.00 99 1011.6
20260507070009 62 0 0.0 0.0 0.00 0.00 0.00 99 1011.4
20260507065404 62 0 0.0 0.0 0.00 0.00 0.00 99 1011.0
20260507064504 62 0 0.0 0.0 0.00 0.00 0.00 98 1011.3
20260507063604 62 316 0.0 0.9 0.00 0.00 0.00 98 1011.5